sat.trackr.live / text

‹ back to catalog

YAOGAN-43 01H

NORAD 60465 · 2024-148H

PAYLOAD ACTIVE UNKNOWN

§ Identity

Operator
Country
PRC
Launch date
2024-08-16
Launch site
XICLF
Launch vehicle
Mass (kg)
RCS (m²)

External: N2YO · Heavens-Above · Gunter

§ Orbital elements

Epoch: 2026-09-22T23:31:39.680832Z

Period
94.16 min
Inclination
34.9848°
Eccentricity
0.0006335
Mean motion
15.29339012 rev/d
Perigee alt
473.4 km
Apogee alt
482.1 km
Semi-major
6,855.9 km
B*
3.6041e-4
RAAN
256.9475°
Arg perigee
353.6281°
Mean anomaly
6.4354°
Rev number
11,716

§ Raw data

YAOGAN-43 01H1 60465U 24148H   26265.98032038  .00010501  00000+0  36041-3 0  99972 60465  34.9848 256.9475 0006335 353.6281   6.4354 15.29339012117165

JSON: /api/v1/satellites/60465 · /tle

For live sub-satellite position, see the globe view (requires WebGL).

§ Visibility from observer

Set your observer location to see the next 7 days of passes ≥ 10°. The values pass through the URL so the page stays shareable.

No JS? Fill the form by hand. The geolocation button needs JavaScript.